Gulfport, MS

3:36 PM CDT on May 29, 2017 (GMT -0500)
Gulfport-Biloxi Regional

Weather History for KGPT - November, 2012

Change the Weather History Date:

Tuesday, November 13, 2012

  Actual Average Record
Temperature  
Mean Temperature 50 °F -  
Max Temperature 60 °F 68 °F 82 °F (1950)
Min Temperature 39 °F 48 °F 32 °F (1968)
Degree Days  
Heating Degree Days 16    
Moisture  
Dew Point 32 °F    
Average Humidity 53    
Maximum Humidity 74    
Minimum Humidity 32    
Precipitation  
Precipitation 0.00 in - - ()
Sea Level Pressure  
Sea Level Pressure 30.32 in    
Wind  
Wind Speed 12 mph (North)    
Max Wind Speed 16 mph    
Max Gust Speed 29 mph    
Visibility 10 miles    
Events      
Averages and records for this station are not official NWS values.
T = Trace of Precipitation, MM = Missing Value Source: NWS Daily Summary

Daily Weather History Graph

Daily Weather History Graph

Search for Another Location

Airport or City:

Trip Planner

Search our weather history database for the weather conditions in past years. The results will help you decide how hot, cold, wet, or windy it might be!

Date:

Astronomy

Nov. 13, 2012 Rise Set
Actual Time 6:20 AM CST 5:00 PM CST
Civil Twilight 5:55 AM CST 5:25 PM CST
Nautical Twilight 5:26 AM CST 5:54 PM CST
Astronomical Twilight 4:57 AM CST 6:22 PM CST
Moon 5:58 AM CST (11/13) 4:55 PM CST (11/13)
Length of Visible Light 11h 30m
Length of Day
10h 39m
Waning Crescent, 0% of the Moon is Illuminated
Nov 13
Waning Crescent
Nov 13
New
Nov 20
First Quarter
Nov 28
Full
Dec 6
Last Quarter

Hourly Weather History & Observations

Time (CST) Temp. Windchill Dew Point Humidity Pressure Visibility Wind Dir Wind Speed Gust Speed Precip Events Conditions
12:53 AM 46.9 °F - 37.9 °F 71% 30.34 in 10.0 mi North 13.8 mph 19.6 mph N/A   Clear
1:53 AM 45.0 °F 39.3 °F 36.0 °F 71% 30.34 in 10.0 mi North 11.5 mph 21.9 mph N/A   Clear
2:53 AM 43.0 °F 36.8 °F 35.1 °F 74% 30.34 in 10.0 mi North 11.5 mph - N/A   Clear
3:53 AM 42.1 °F 35.7 °F 33.1 °F 70% 30.34 in 10.0 mi North 11.5 mph - N/A   Clear
4:53 AM 41.0 °F 33.5 °F 32.0 °F 70% 30.36 in 10.0 mi North 13.8 mph 21.9 mph N/A   Clear
5:53 AM 39.9 °F 31.8 °F 30.9 °F 70% 30.37 in 10.0 mi North 15.0 mph 19.6 mph N/A   Clear
6:53 AM 41.0 °F 33.9 °F 30.9 °F 67% 30.38 in 10.0 mi North 12.7 mph 21.9 mph N/A   Clear
7:53 AM 44.1 °F 37.4 °F 28.9 °F 55% 30.38 in 10.0 mi NNE 13.8 mph 26.5 mph N/A   Clear
8:53 AM 48.0 °F - 27.0 °F 44% 30.38 in 10.0 mi NNE 15.0 mph 28.8 mph N/A   Clear
9:53 AM 51.1 °F - 27.0 °F 39% 30.37 in 10.0 mi North 16.1 mph 24.2 mph N/A   Clear
10:53 AM 53.1 °F - 28.0 °F 38% 30.36 in 10.0 mi North 15.0 mph 23.0 mph N/A   Clear
11:53 AM 55.9 °F - 28.0 °F 34% 30.32 in 10.0 mi North 15.0 mph 20.7 mph N/A   Clear
12:53 PM 57.9 °F - 30.0 °F 35% 30.29 in 10.0 mi NNE 12.7 mph - N/A   Clear
1:53 PM 59.0 °F - 28.9 °F 32% 30.26 in 10.0 mi NNE 15.0 mph 19.6 mph N/A   Clear
2:53 PM 60.1 °F - 30.9 °F 33% 30.25 in 10.0 mi North 9.2 mph - N/A   Clear
3:53 PM 57.0 °F - 30.0 °F 36% 30.26 in 10.0 mi North 13.8 mph 18.4 mph N/A   Clear
4:53 PM 53.1 °F - 32.0 °F 45% 30.26 in 10.0 mi North 8.1 mph - N/A   Clear
5:53 PM 51.1 °F - 34.0 °F 52% 30.28 in 10.0 mi North 5.8 mph - N/A   Clear
6:53 PM 51.1 °F - 33.1 °F 50% 30.29 in 10.0 mi North 6.9 mph - N/A   Clear
7:53 PM 48.9 °F - 33.1 °F 54% 30.30 in 10.0 mi North 6.9 mph - N/A   Clear
8:53 PM 45.0 °F 42.6 °F 34.0 °F 65% 30.31 in 10.0 mi NNW 4.6 mph - N/A   Clear
9:53 PM 46.9 °F - 33.1 °F 59% 30.29 in 10.0 mi North 8.1 mph - N/A   Clear
10:53 PM 46.0 °F 42.5 °F 32.0 °F 58% 30.28 in 10.0 mi NNE 6.9 mph - N/A   Clear
11:53 PM 45.0 °F 40.6 °F 32.0 °F 60% 30.27 in 10.0 mi NNE 8.1 mph - N/A   Clear